Location: Unspecified
(37.6100°N, 2.7800°W)
Time: 07:58:04
(UTC+00:00)

Envisat - Visible Passes

Search period start: 22 September 2017 00:00
Search period end: 02 October 2017 00:00
Orbit: 764 x 766 km, 98.2° (Epoch: 21 September)

Date Brightness Start Highest point End Pass type
(mag) Time Alt. Az. Time Alt. Az. Time Alt. Az.
22 Sep 3.4 19:31:05 28° ESE 19:33:15 42° ENE 19:38:01 10° N visible
22 Sep 5.2 21:11:18 19° WSW 21:12:25 20° W 21:16:05 10° NW visible
23 Sep 4.4 18:54:06 13° ESE 18:56:51 20° ENE 19:00:25 10° NNE visible
23 Sep 3.9 20:34:19 39° SW 20:35:29 45° W 20:40:22 10° NNW visible
24 Sep 2.8 19:57:21 48° SSE 19:58:45 77° ENE 20:03:50 10° N visible
24 Sep 5.8 21:37:34 10° W 21:38:17 10° W 21:39:08 10° W visible
25 Sep 3.7 19:20:22 26° ESE 19:22:13 34° ENE 19:26:45 10° N visible
25 Sep 4.8 21:00:35 25° WSW 21:01:13 25° W 21:05:24 10° NW visible
26 Sep 4.6 18:43:23 11° E 18:45:52 16° ENE 18:48:48 10° NNE visible
26 Sep 3.4 20:23:37 53° SW 20:24:21 59° W 20:29:23 10° NNW visible
27 Sep 3.0 19:46:38 49° ESE 19:47:41 60° ENE 19:52:41 10° N visible
27 Sep 5.6 21:26:51 14° W 21:27:04 14° W 21:29:38 10° WNW visible
28 Sep 4.0 19:09:39 23° E 19:11:12 27° ENE 19:15:25 10° NNE visible
28 Sep 4.5 20:49:52 32° WSW 20:50:03 32° W 20:54:36 10° NNW visible
29 Sep 4.8 18:32:56 10° E 18:34:55 12° ENE 18:36:54 10° NE visible
29 Sep 3.0 20:12:53 72° SW 20:13:15 76° WSW 20:18:21 10° NNW visible
30 Sep 3.2 19:35:55 44° E 19:36:37 47° ENE 19:41:29 10° N visible
30 Sep 5.4 21:16:08 18° W 21:16:08 18° W 21:19:16 10° NW visible
01 Oct 4.2 18:58:57 20° E 19:00:12 21° ENE 19:03:59 10° NNE visible
01 Oct 4.1 20:39:09 41° W 20:39:09 41° W 20:43:42 10° NNW visible
